STARLINK-2048

decayed
NORAD ID: 48092 Int'l Des: 2021-027 Owner: SPXS Country: US Constellation: starlink
LEOCIRCULAR

关于 STARLINK-2048

正在加载描述...

高度历史

Altitude vs Time

uPlot chart will show altitude changes over time

两行轨道根数

1 48092U 21027A 25036.50575435 .14274619 12367-4 79294-3 0 9996
2 48092 53.0249 41.8428 0003264 188.4210 260.9113 16.42156799213721
Epoch: Feb 5, 2025 • Age: 5182 hours

当前状态

Position data unavailable
发射日期 Apr 7, 2021
运行时间 4.4 years
衰减日期 Feb 5, 2025
类型 internet

技术详情

分类 Payload
质量 260.00 kg
干质量 248.00 kg
总质量 260.00 kg
长度 0.20 m
直径 2.80 m
跨度 9.00 m
形状 Box + pan
制造商 SPXS
平台类型 Starlink
阶段状态 Unknown Transfer Status
所有者/国家 SPXS/US

大型星座

Loading constellations...